Weather History for Grand Marais, MN

Change the Weather History Date:

Wednesday, October 3, 2012

  Actual Average (KCKC) Record (KCKC)
Temperature  
Mean Temperature 51 °F -  
Max Temperature 61 °F 52 °F 73 °F (2005)
Min Temperature 43 °F 35 °F 21 °F (1999)
Degree Days  
Heating Degree Days 14    
Growing Degree Days 1 (Base 50)    
Moisture  
Dew Point 46 °F    
Average Humidity 81    
Maximum Humidity 93    
Minimum Humidity 62    
Precipitation  
Precipitation 0.00 in - - ()
Sea Level Pressure  
Sea Level Pressure 29.92 in    
Wind  
Wind Speed 3 mph (NNE)    
Max Wind Speed 7 mph    
Max Gust Speed -    
Averages and records for this station are not official NWS values.
T = Trace of Precipitation, MM = Missing Value Source: NWS Daily Summary

Daily Weather History Graph

Daily Weather History Graph

Search for Another Location

Airport:

Trip Planner

Search our weather history database for the weather conditions in past years. The results will help you decide how hot, cold, wet, or windy it might be!

Date:

Astronomy

Oct. 03, 2012 Rise Set
Actual Time 7:03 AM CDT 6:35 PM CDT
Civil Twilight 6:33 AM CDT 7:06 PM CDT
Nautical Twilight 5:57 AM CDT 7:42 PM CDT
Astronomical Twilight 5:20 AM CDT 8:18 PM CDT
Moon 8:09 PM CDT (10/3) 10:45 AM CDT (10/3)
Length of Visible Light 12h 33m
Length of Day
11h 31m
Waning Gibbous, 88% of the Moon is Illuminated
Oct 3
Waning Gibbous
Oct 8
Last Quarter
Oct 15
New
Oct 21
First Quarter
Oct 29
Full

Hourly Weather History & Observations

Time (CDT) Temp. Windchill Dew Point Humidity Pressure Visibility Wind Dir Wind Speed Gust Speed Precip Events Conditions
12:56 AM 46.9 °F - 44.1 °F 90% 29.89 in - NNE 3.5 mph - N/A   Unknown
1:56 AM 45.0 °F 43.5 °F 42.1 °F 90% 29.89 in - NNE 3.5 mph - N/A   Unknown
2:56 AM 44.1 °F 42.5 °F 42.1 °F 93% 29.89 in - NNE 3.5 mph - N/A   Unknown
3:56 AM 44.1 °F - 41.0 °F 89% 29.90 in - Calm Calm - N/A   Unknown
4:56 AM 45.0 °F 43.5 °F 42.1 °F 90% 29.90 in - North 3.5 mph - N/A   Unknown
5:56 AM 44.1 °F 42.5 °F 41.0 °F 89% 29.90 in - North 3.5 mph - N/A   Unknown
6:56 AM 43.0 °F 41.3 °F 41.0 °F 93% 29.91 in - North 3.5 mph - N/A   Unknown
7:56 AM 45.0 °F 43.5 °F 42.1 °F 90% 29.92 in - NNW 3.5 mph - N/A   Unknown
8:56 AM 55.0 °F - 50.0 °F 83% 29.91 in - Calm Calm - N/A   Unknown
9:56 AM 57.0 °F - 51.1 °F 81% 29.92 in - Calm Calm - N/A   Unknown
10:56 AM 57.0 °F - 52.0 °F 83% 29.92 in - SSE 3.5 mph - N/A   Unknown
11:56 AM 57.0 °F - 51.1 °F 81% 29.92 in - SSW 4.6 mph - N/A   Unknown
12:56 PM 59.0 °F - 52.0 °F 78% 29.92 in - South 4.6 mph - N/A   Unknown
1:56 PM 57.0 °F - 51.1 °F 81% 29.91 in - SW 5.8 mph - N/A   Unknown
2:56 PM 57.9 °F - 51.1 °F 78% 29.91 in - SSW 3.5 mph - N/A   Unknown
3:56 PM 57.9 °F - 51.1 °F 78% 29.90 in - Calm Calm - N/A   Unknown
4:56 PM 57.0 °F - 50.0 °F 77% 29.91 in - Calm Calm - N/A   Unknown
5:56 PM 57.0 °F - 48.9 °F 74% 29.93 in - ENE 3.5 mph - N/A   Unknown
6:56 PM 52.0 °F - 46.0 °F 80% 29.94 in - Calm Calm - N/A   Unknown
7:56 PM 51.1 °F - 46.9 °F 86% 29.94 in - Calm Calm - N/A   Unknown
8:56 PM 50.0 °F - 43.0 °F 77% 29.94 in - Calm Calm - N/A   Unknown
9:56 PM 55.9 °F - 45.0 °F 67% 29.94 in - NE 6.9 mph - N/A   Unknown
10:56 PM 54.0 °F - 41.0 °F 62% 29.93 in - Calm Calm - N/A   Unknown
11:56 PM 57.0 °F - 44.1 °F 62% 29.92 in - NE 3.5 mph - N/A   Unknown